Retour au catalogue

METEOR 2-5 DEB

ActifPO
NORAD 39603·DEBRIS·🇷🇺 Russia

Lancé Oct 31, 1979 depuis Plesetsk Cosmodrome

Loading…

Prochains Passages (prochaines 24 heures)

TLE

VieillissantSource: Space-Track

Époque: Sep 7, 2026, 19:18 UTC

1 39603U 79095CE  26250.80464515  .00002609  00000-0  91862-3 0  9995
2 39603  81.1988  78.9354 0010868 197.0439 163.0382 14.34610187655318

Suivez METEOR 2-5 DEB en temps réel avec AllMySat

Download on the App Store